Temperature
5 4 4 4 4 5 5 4 4 4 4 3 3 3 3 3 2 2 2 2 3 4 4 4 4 4 5 5 5 5 5 5 5 5 5 5 5 5 5 5 5 5 6 6
3 3 4 4 4 4 4 4 4 4 3 3 2 2 2 2 1 2 2 2 2 3 3 3 4 4 4 4 4 4 4 4 4 4 4 4 4 4 4 4 5 5 5 5
4 3 3 4 4 4 4 3 3 3 3 2 2 2 2 2 1 1 1 2 2 2 3 3 3 3 3 3 3 3 3 3 3 3 3 3 3 4 4 4 4 4 4 4
3 3 3 3 3 3 4 3 3 3 2 1 2 2 2 1 0 0 0 1 1 2 2 2 3 3 3 3 3 3 3 3 2 2 3 3 3 3 3 3 3 3 4 4
2 2 3 3 3 3 2 2 2 2 1 0 0 1 2 1 1 1 -0 0 0 1 1 2 2 2 2 2 2 2 2 2 2 2 2 2 2 2 2 2 3 3 3 3
2 2 2 2 2 2 1 1 1 -0 -0 1 0 0 1 0 1 1 -0 0 0 1 1 1 2 2 2 2 2 2 2 2 2 2 1 1 2 2 2 2 2 2 2 2
1 1 1 1 1 1 1 1 1 1 0 1 -0 0 1 0 -0 -0 -0 -0 0 0 0 1 1 1 1 1 1 1 1 1 1 1 1 1 1 1 1 1 1 1 2 2
1 1 1 1 1 0 0 1 2 2 1 0 -1 -1 0 -1 -1 -1 -1 -0 -0 -0 0 0 0 1 1 1 1 0 0 1 0 1 1 0 0 0 0 1 1 1 1 1
0 0 -0 0 0 1 0 0 0 -0 -1 -1 -1 -2 -1 -1 -2 -2 -2 -1 -1 -1 -0 -0 -0 -0 -0 -0 -0 -0 -0 -0 -0 -0 -0 -0 -0 -0 -0 -0 -0 -0 -0 0
-0 -1 -1 -1 0 0 -0 -1 -1 -0 0 1 -0 -1 -0 -0 -1 -2 -2 -2 -2 -1 -1 -1 -1 -1 -1 -1 -1 -1 -1 -1 -1 -1 -1 -1 -1 -1 -1 -1 -1 -1 -1 -1
-1 -1 -2 -2 -2 -1 -1 -1 -1 -1 -1 -0 -0 0 -1 -1 -2 -2 -3 -2 -2 -1 -1 -1 -1 -1 -1 -1 -1 -1 -1 -1 -1 -1 -1 -1 -1 -1 -1 -2 -2 -2 -1 -1
-2 -2 -2 -2 -3 -3 -2 -2 -2 -1 -1 -3 -2 -0 -2 -3 -3 -3 -3 -2 -2 -2 -2 -2 -2 -2 -2 -2 -2 -2 -2 -2 -2 -2 -2 -2 -2 -2 -2 -2 -2 -2 -2 -2
-2 -2 -2 -1 -2 -4 -4 -4 -4 -3 -3 -3 -2 -1 -2 -4 -4 -4 -3 -3 -2 -2 -2 -2 -2 -3 -3 -3 -2 -2 -2 -2 -2 -3 -2 -2 -3 -3 -3 -3 -3 -3 -3 -3
-2 -3 -2 -1 -1 -3 -4 -4 -4 -3 -3 -3 -3 -2 -2 -3 -4 -4 -3 -3 -3 -3 -3 -3 -3 -3 -3 -3 -3 -3 -3 -3 -3 -3 -3 -3 -3 -3 -3 -4 -4 -4 -4 -3
-3 -3 -3 -3 -3 -3 -3 -3 -4 -4 -3 -2 -2 -3 -2 -3 -4 -4 -3 -3 -3 -3 -3 -3 -3 -3 -3 -3 -4 -4 -4 -4 -4 -4 -4 -4 -4 -4 -4 -4 -4 -4 -4 -4
-4 -4 -4 -4 -3 -3 -3 -3 -3 -3 -3 -4 -3 -3 -4 -4 -4 -4 -4 -4 -4 -4 -4 -4 -4 -4 -4 -4 -4 -4 -4 -4 -4 -4 -4 -4 -4 -4 -5 -5 -5 -5 -5 -5
-5 -5 -4 -4 -4 -4 -3 -4 -4 -5 -5 -4 -3 -3 -5 -5 -5 -5 -4 -4 -4 -4 -4 -4 -4 -4 -4 -4 -5 -5 -5 -5 -5 -5 -5 -5 -5 -5 -5 -5 -5 -5 -5 -5
-5 -5 -5 -5 -4 -4 -3 -5 -5 -5 -6 -6 -5 -5 -5 -5 -5 -5 -4 -4 -4 -4 -4 -4 -4 -5 -5 -5 -5 -5 -5 -5 -5 -5 -5 -5 -5 -6 -6 -6 -6 -6 -6 -6
-6 -5 -5 -5 -5 -4 -4 -5 -6 -6 -6 -6 -6 -6 -6 -6 -6 -5 -4 -4 -4 -5 -5 -5 -5 -5 -5 -6 -6 -6 -6 -6 -6 -6 -6 -6 -6 -6 -6 -6 -6 -6 -6 -6
-6 -6 -5 -5 -4 -4 -4 -6 -6 -6 -5 -6 -7 -7 -7 -7 -6 -6 -5 -5 -5 -5 -5 -5 -6 -6 -6 -6 -6 -6 -6 -6 -6 -6 -6 -7 -7 -7 -7 -6 -6 -6 -7 -6
-7 -7 -6 -6 -5 -5 -6 -7 -6 -5 -5 -6 -7 -7 -7 -7 -6 -6 -6 -6 -6 -6 -6 -6 -6 -6 -7 -7 -7 -7 -7 -7 -7 -7 -7 -7 -7 -7 -7 -7 -7 -7 -7 -7
-7 -7 -7 -7 -6 -5 -7 -7 -7 -6 -6 -6 -7 -7 -7 -7 -7 -7 -7 -7 -6 -7 -6 -7 -7 -7 -7 -7 -8 -8 -7 -7 -7 -7 -7 -7 -7 -7 -7 -7 -7 -7 -7 -7
-8 -8 -7 -7 -6 -7 -8 -7 -6 -6 -7 -7 -7 -7 -7 -7 -7 -7 -7 -7 -7 -7 -7 -7 -8 -8 -8 -8 -8 -8 -8 -8 -8 -8 -8 -8 -8 -8 -8 -8 -8 -8 -8 -8
-10 -10 -9 -9 -9 -8 -8 -7 -7 -7 -7 -7 -7 -7 -7 -8 -8 -8 -7 -7 -7 -8 -8 -8 -8 -8 -8 -8 -9 -9 -9 -8 -8 -8 -8 -8 -8 -8 -8 -8 -8 -8 -8 -8
-10 -11 -10 -10 -10 -9 -8 -7 -7 -7 -7 -7 -7 -7 -8 -8 -8 -8 -8 -8 -8 -8 -8 -9 -9 -9 -9 -9 -9 -9 -9 -9 -9 -9 -9 -9 -9 -8 -8 -8 -8 -9 -8 -8
-11 -11 -10 -8 -9 -9 -8 -7 -7 -8 -8 -8 -8 -8 -8 -8 -8 -9 -9 -9 -9 -9 -9 -9 -9 -9 -9 -9 -9 -9 -9 -9 -9 -9 -9 -9 -9 -9 -9 -9 -9 -9 -9 -8
Wind_Speed
3 4 2 5 5 2 4 4 4 3 1 0 4 7 8 4 3 4 4 4 4 4 1 1 2 3 4 4 4 4 4 3 3 2 2 2 2 2 3 4 5 5 6 6
4 2 3 2 2 2 3 3 2 2 2 0 3 7 7 5 5 5 5 5 4 2 1 2 2 3 3 3 3 3 3 2 2 1 1 0 0 1 1 3 4 5 5 5
5 2 1 3 3 2 3 5 5 3 3 2 3 6 4 2 2 2 2 3 3 4 4 3 3 3 2 2 2 2 2 2 2 2 2 2 2 2 2 3 3 5 5 4
2 2 1 2 3 4 5 3 4 3 1 3 1 5 6 3 2 3 3 3 3 2 3 3 3 3 3 2 2 2 2 2 1 2 2 2 1 1 2 2 3 5 5 4
2 0 1 2 2 4 3 2 3 2 3 2 1 3 7 2 4 6 5 4 3 3 3 3 3 3 2 2 2 2 2 2 1 1 2 1 0 0 1 2 3 4 4 4
1 1 1 2 1 2 4 4 5 4 3 4 6 6 7 5 6 4 4 4 4 3 3 2 2 1 1 1 1 1 2 1 1 1 1 2 2 1 1 2 2 3 3 3
3 2 1 1 3 2 2 4 2 3 1 6 3 5 8 6 4 5 5 5 4 3 3 2 2 2 1 1 1 0 1 1 1 1 1 2 2 2 3 2 2 3 3 3
1 5 2 0 3 4 4 5 6 5 5 4 1 6 6 4 2 2 2 3 2 3 3 3 3 3 3 2 2 1 1 1 2 2 2 2 3 2 3 3 3 3 3 4
4 5 2 1 1 4 3 3 3 4 1 3 5 6 7 2 2 2 2 1 2 3 2 3 3 3 3 3 3 2 2 2 2 2 2 3 3 3 4 4 3 3 4 5
4 3 2 2 1 2 2 4 4 4 4 5 5 5 5 4 4 3 3 3 3 2 2 2 2 2 2 2 2 1 2 3 3 2 2 3 3 4 4 4 4 5 5 5
3 3 2 1 3 4 2 2 3 3 3 5 4 6 4 6 5 4 4 3 3 3 3 2 2 1 1 1 1 2 2 2 2 3 3 3 3 4 4 4 5 5 6 6
3 3 3 5 2 1 3 4 5 4 5 4 4 7 2 3 3 3 3 3 3 3 2 2 2 1 1 1 2 2 2 3 3 3 3 4 4 4 4 5 6 6 6 6
3 4 1 4 3 2 1 2 3 3 3 4 5 7 2 1 2 1 2 3 3 3 2 1 1 1 2 2 3 3 3 3 3 3 4 4 4 4 5 5 5 6 6 6
2 3 5 8 6 3 4 3 4 5 4 5 8 10 8 6 5 4 3 4 3 3 3 2 2 3 3 3 3 3 3 3 4 4 4 5 5 5 5 5 6 6 6 6
3 2 3 4 4 2 5 6 7 9 9 9 9 10 11 8 6 5 4 3 3 3 3 3 3 3 3 3 3 3 4 4 4 4 5 5 5 5 5 5 6 6 6 6
2 2 1 4 4 3 6 7 9 10 8 9 10 12 8 6 4 4 5 4 5 5 4 4 4 4 4 4 4 4 4 4 4 5 6 6 5 5 5 5 5 6 6 6
3 3 1 4 3 3 7 8 9 5 6 7 11 10 4 4 5 5 5 5 6 6 5 5 5 5 5 5 5 5 5 4 5 5 6 5 5 6 6 6 6 6 6 6
5 4 2 2 1 7 7 1 5 6 6 7 6 6 4 6 5 5 5 6 6 5 5 5 5 5 4 4 4 4 4 5 5 5 6 6 6 6 6 6 7 7 6 6
4 5 3 2 4 7 6 2 2 4 6 5 7 6 4 3 3 4 3 2 4 4 4 4 4 5 4 4 4 4 4 5 5 6 6 6 6 7 7 7 7 7 6 7
2 2 3 3 3 6 5 2 1 3 5 3 4 5 3 2 3 5 3 3 4 4 3 3 4 4 4 4 3 4 5 5 6 6 7 7 7 7 8 8 8 7 7 8
1 1 3 4 5 7 4 2 2 3 5 4 2 3 3 3 5 5 5 5 4 4 4 3 3 4 4 4 3 4 5 6 6 6 6 7 7 7 8 8 7 7 7 7
5 4 4 4 4 7 1 3 4 4 3 3 3 2 2 4 4 4 5 6 5 5 5 4 4 5 5 4 4 5 6 6 5 6 6 7 7 7 6 7 7 7 7 7
5 6 5 7 6 2 2 3 3 1 2 3 3 3 3 4 5 5 5 5 5 5 4 4 4 5 5 4 4 6 7 6 6 6 7 7 7 6 6 7 7 6 6 6
3 1 2 4 6 5 4 3 3 2 3 4 3 3 3 4 4 5 5 5 5 4 4 4 4 5 6 6 5 5 6 5 5 6 7 6 6 6 6 5 5 6 6 6
3 2 2 4 5 5 4 4 5 4 3 3 3 3 3 2 4 4 4 5 4 5 4 4 4 5 7 7 7 6 6 4 5 6 6 6 6 6 5 5 5 6 7 8
2 4 4 6 5 4 6 5 3 3 4 3 3 4 3 3 4 4 4 4 4 4 4 5 5 5 6 6 7 7 5 4 5 5 6 5 5 5 4 4 5 7 8 10
Wind_Direction
41 84 193 213 203 190 162 176 220 251 333 190 240 265 274 262 221 230 227 207 209 223 221 120 110 103 98 93 98 103 96 88 84 73 65 55 30 9 11 16 19 20 18 18
54 250 243 172 156 145 154 179 228 296 19 263 290 282 273 248 226 220 212 212 212 205 153 134 118 113 117 120 116 113 109 100 94 89 82 115 98 354 347 357 12 14 16 13
184 228 195 153 152 166 209 200 207 223 4 34 339 300 269 254 212 220 221 210 203 192 192 182 168 158 140 143 154 147 137 114 96 83 74 53 40 15 9 360 355 356 4 3
225 287 119 156 196 174 241 209 180 172 115 283 75 282 275 244 250 235 233 224 216 204 184 179 176 173 176 186 171 156 145 124 114 108 107 110 90 320 306 319 324 334 352 357
256 260 145 201 227 184 197 97 130 151 160 290 249 221 277 256 248 241 229 225 220 206 190 188 185 187 190 176 169 167 147 132 134 130 140 142 140 271 311 322 327 327 336 344
268 314 193 201 16 146 128 78 63 64 94 259 221 196 268 231 221 224 215 218 218 212 207 212 193 149 114 86 103 148 150 160 166 159 157 172 197 230 290 317 318 317 316 322
315 306 344 97 83 47 99 102 36 344 299 248 185 207 249 247 224 206 211 216 216 212 206 208 192 176 174 173 173 134 185 231 207 189 206 215 218 220 230 250 269 293 304 304
259 279 247 240 172 178 196 162 172 208 230 269 232 230 254 265 256 232 223 218 214 218 213 215 212 196 195 199 208 203 224 266 237 229 242 240 234 230 241 244 244 257 267 275
195 250 336 344 348 144 152 199 167 141 147 267 258 276 297 274 274 246 242 227 232 236 232 230 224 206 201 205 217 215 226 258 263 257 253 245 239 239 247 253 252 255 269 277
168 241 296 323 29 27 156 147 122 158 197 246 272 262 247 262 252 238 228 231 249 250 255 255 235 220 227 224 236 235 233 247 255 255 264 279 262 253 247 252 258 259 268 270
147 179 301 344 202 200 140 150 165 170 189 196 254 265 228 222 225 223 235 238 242 249 251 248 252 249 248 268 256 258 258 273 276 272 273 274 274 275 259 250 253 258 265 266
169 147 246 252 260 315 190 188 165 184 231 209 226 269 287 228 233 215 246 263 263 260 254 241 244 262 284 271 265 263 268 275 279 278 272 266 269 274 271 263 258 260 260 264
146 134 359 333 335 345 265 234 206 172 157 189 211 262 324 349 318 275 252 268 277 278 269 261 253 252 258 263 264 265 265 271 283 280 271 268 266 267 268 270 271 269 262 262
120 165 197 222 239 200 235 239 199 177 201 223 232 254 284 294 291 292 277 269 271 270 260 254 260 261 264 265 263 262 268 270 277 275 268 267 266 266 267 271 269 267 266 257
108 214 238 265 277 213 232 233 205 207 215 222 245 247 263 269 268 273 270 273 275 280 275 269 267 270 275 277 273 268 272 273 274 269 266 265 267 267 268 270 270 270 267 263
128 201 255 281 282 260 269 256 226 228 234 240 260 268 264 275 278 276 268 261 260 269 273 277 277 278 276 274 276 278 275 274 270 264 266 269 269 269 268 268 270 272 269 268
170 160 194 266 300 326 270 239 213 217 219 209 236 251 278 291 276 263 261 256 253 261 270 273 273 271 270 268 268 267 270 275 269 267 270 270 268 270 271 272 273 270 268 268
174 168 188 243 21 245 249 217 194 212 241 227 239 261 262 262 277 277 262 244 252 262 270 274 278 281 283 278 276 276 275 273 270 269 269 271 271 272 273 269 266 265 267 263
187 174 179 190 233 269 288 272 178 203 265 242 241 264 287 309 317 303 280 253 258 270 274 276 280 284 282 280 276 277 280 278 275 273 272 270 267 267 269 266 264 264 264 264
82 154 169 180 216 245 261 290 240 129 279 275 232 252 276 341 301 287 319 325 317 310 302 299 302 304 291 285 278 275 279 279 275 275 275 272 265 261 263 263 265 264 261 260
117 150 193 207 231 259 266 281 126 171 266 315 260 248 234 234 248 284 313 319 318 316 313 313 311 305 296 295 291 285 284 280 282 284 282 276 268 264 263 263 262 261 261 262
180 181 199 182 220 254 256 128 179 229 299 309 290 276 259 277 293 304 312 315 321 322 321 321 317 310 307 303 294 288 285 286 291 289 287 282 276 271 268 261 262 258 255 258
203 198 200 202 221 263 180 202 238 252 280 292 291 295 282 290 296 305 309 311 313 312 312 315 309 310 311 305 293 285 289 294 296 297 292 289 285 278 272 262 258 258 251 251
255 280 205 253 265 274 269 283 300 280 272 288 291 288 277 283 293 303 306 309 309 311 312 315 316 313 311 311 303 289 292 295 295 296 298 296 292 288 282 272 254 252 250 251
236 184 216 258 283 311 288 267 274 284 293 304 311 297 277 277 295 298 304 306 306 311 312 310 307 307 307 312 309 305 303 300 299 298 301 302 299 294 287 283 266 259 252 249
212 189 197 242 246 241 270 280 273 276 284 283 299 312 306 284 283 298 301 303 306 306 309 312 312 311 310 313 312 311 311 306 301 305 309 307 305 302 295 291 293 285 275 273
Height
1487 1492 1495 1494 1494 1494 1497 1499 1501 1500 1499 1501 1501 1499 1496 1494 1495 1494 1494 1494 1495 1496 1499 1501 1503 1505 1506 1508 1510 1511 1512 1514 1515 1516 1517 1518 1519 1520 1521 1521 1521 1522 1522 1523
1491 1493 1492 1492 1494 1495 1497 1500 1501 1501 1500 1501 1502 1500 1495 1492 1492 1491 1491 1492 1493 1494 1496 1498 1500 1502 1504 1506 1507 1509 1510 1511 1513 1514 1515 1516 1516 1517 1518 1518 1518 1519 1519 1520
1490 1492 1490 1492 1494 1495 1496 1499 1500 1501 1502 1503 1504 1498 1493 1490 1490 1490 1490 1490 1491 1492 1494 1496 1498 1500 1502 1504 1505 1507 1508 1509 1510 1511 1512 1513 1514 1514 1515 1515 1515 1516 1516 1517
1492 1491 1491 1491 1493 1494 1496 1496 1497 1500 1505 1508 1507 1506 1493 1490 1490 1488 1488 1488 1488 1490 1492 1494 1495 1497 1499 1501 1503 1505 1506 1507 1508 1509 1510 1510 1510 1511 1511 1512 1512 1513 1514 1514
1491 1491 1491 1492 1492 1493 1495 1496 1499 1501 1506 1512 1511 1511 1495 1490 1489 1486 1485 1486 1486 1488 1489 1491 1493 1495 1497 1499 1501 1502 1503 1504 1506 1507 1507 1507 1508 1508 1509 1509 1509 1510 1510 1511
1492 1491 1491 1491 1492 1493 1496 1499 1503 1508 1510 1510 1507 1510 1494 1490 1484 1482 1483 1483 1484 1486 1487 1489 1491 1493 1494 1496 1498 1499 1500 1502 1503 1504 1504 1505 1505 1505 1505 1505 1505 1506 1506 1507
1493 1492 1491 1491 1493 1495 1496 1501 1508 1509 1514 1507 1505 1504 1491 1481 1480 1479 1480 1481 1482 1483 1485 1486 1488 1489 1491 1493 1494 1496 1497 1498 1499 1500 1501 1501 1502 1502 1502 1502 1502 1502 1502 1502
1496 1495 1492 1492 1492 1495 1497 1497 1503 1508 1509 1506 1507 1502 1486 1479 1478 1478 1478 1479 1480 1481 1482 1483 1485 1487 1488 1490 1491 1492 1494 1494 1495 1496 1497 1498 1498 1498 1498 1498 1498 1498 1498 1498
1496 1495 1493 1492 1491 1492 1496 1498 1499 1506 1512 1512 1504 1499 1487 1478 1477 1477 1477 1477 1478 1479 1480 1481 1483 1484 1485 1486 1488 1489 1490 1490 1491 1492 1493 1493 1493 1493 1494 1494 1494 1494 1494 1494
1492 1498 1495 1494 1492 1493 1494 1497 1502 1503 1503 1502 1497 1497 1487 1478 1476 1476 1476 1476 1476 1478 1478 1479 1480 1481 1482 1483 1484 1485 1486 1487 1487 1488 1488 1488 1489 1489 1489 1489 1489 1489 1489 1489
1492 1498 1499 1497 1496 1495 1497 1498 1498 1501 1501 1500 1498 1487 1477 1475 1473 1474 1474 1474 1475 1476 1476 1477 1478 1478 1479 1480 1481 1482 1482 1483 1483 1483 1483 1483 1484 1484 1484 1484 1484 1484 1484 1484
1491 1496 1499 1497 1495 1495 1494 1495 1497 1497 1500 1504 1499 1486 1474 1473 1472 1472 1473 1473 1474 1474 1474 1475 1475 1475 1476 1477 1477 1478 1478 1479 1479 1479 1479 1479 1479 1479 1478 1478 1479 1479 1479 1479
1490 1495 1498 1495 1499 1499 1497 1496 1496 1496 1498 1502 1499 1484 1474 1473 1472 1472 1472 1472 1472 1472 1472 1472 1472 1472 1473 1473 1474 1474 1475 1475 1475 1475 1475 1474 1474 1474 1473 1473 1473 1473 1473 1473
1486 1491 1491 1489 1486 1490 1495 1494 1495 1495 1494 1496 1492 1479 1473 1472 1471 1471 1470 1470 1470 1470 1470 1469 1469 1469 1470 1470 1470 1470 1470 1470 1470 1470 1470 1469 1469 1469 1468 1468 1467 1467 1467 1467
1486 1490 1491 1489 1486 1487 1486 1486 1489 1490 1486 1485 1478 1477 1470 1470 1470 1469 1468 1468 1467 1467 1467 1467 1466 1466 1466 1466 1466 1466 1466 1466 1465 1465 1465 1464 1464 1464 1463 1462 1462 1462 1462 1461
1487 1490 1491 1489 1486 1486 1483 1480 1482 1482 1481 1480 1477 1473 1467 1467 1467 1466 1465 1465 1465 1464 1464 1464 1464 1463 1463 1462 1462 1461 1461 1461 1461 1460 1460 1459 1458 1458 1457 1457 1456 1456 1456 1455
1487 1490 1490 1488 1488 1484 1481 1476 1477 1478 1475 1475 1473 1467 1465 1466 1465 1463 1463 1462 1462 1462 1461 1461 1460 1460 1459 1459 1458 1457 1456 1456 1456 1455 1454 1454 1453 1452 1451 1451 1451 1450 1450 1449
1485 1487 1489 1489 1489 1486 1470 1470 1469 1471 1470 1470 1466 1464 1463 1463 1462 1461 1460 1460 1459 1459 1458 1458 1457 1456 1455 1455 1454 1453 1452 1451 1450 1449 1448 1447 1447 1446 1446 1445 1445 1444 1444 1443
1480 1483 1486 1488 1487 1478 1471 1469 1470 1471 1468 1465 1464 1463 1462 1461 1460 1458 1457 1457 1457 1456 1456 1455 1454 1453 1451 1450 1449 1448 1447 1445 1444 1443 1442 1441 1441 1440 1439 1439 1439 1438 1438 1437
1480 1481 1484 1486 1484 1478 1468 1468 1466 1469 1468 1461 1461 1460 1461 1460 1461 1457 1455 1454 1453 1453 1452 1451 1450 1449 1447 1446 1445 1443 1442 1440 1439 1438 1437 1436 1435 1435 1434 1433 1433 1432 1431 1430
1484 1484 1485 1485 1483 1473 1468 1466 1466 1470 1464 1460 1458 1457 1458 1458 1458 1455 1453 1452 1451 1450 1449 1448 1446 1445 1443 1442 1440 1438 1437 1436 1434 1433 1432 1431 1430 1429 1428 1427 1426 1425 1424 1424
1481 1483 1484 1484 1482 1473 1466 1466 1467 1463 1460 1458 1456 1456 1456 1455 1453 1452 1450 1449 1447 1446 1445 1444 1442 1441 1439 1438 1436 1434 1432 1431 1430 1428 1426 1425 1424 1423 1422 1420 1419 1418 1418 1417
1477 1475 1474 1473 1470 1464 1462 1461 1460 1459 1458 1457 1455 1454 1454 1452 1451 1449 1448 1446 1444 1443 1442 1441 1439 1437 1436 1434 1432 1430 1428 1427 1425 1423 1421 1420 1418 1417 1415 1414 1412 1411 1411 1410
1474 1472 1472 1471 1464 1462 1460 1459 1458 1458 1456 1455 1454 1453 1452 1450 1449 1447 1445 1443 1442 1440 1439 1438 1436 1434 1432 1431 1429 1427 1424 1422 1420 1418 1416 1414 1412 1410 1409 1406 1405 1405 1404 1404
1470 1471 1470 1468 1463 1460 1457 1456 1456 1455 1454 1453 1452 1451 1450 1448 1446 1445 1443 1441 1440 1438 1437 1435 1433 1431 1429 1427 1425 1423 1421 1419 1416 1414 1412 1410 1407 1404 1402 1401 1400 1399 1398 1398
1467 1468 1467 1462 1458 1459 1455 1453 1453 1452 1451 1450 1449 1448 1447 1446 1444 1443 1441 1439 1438 1436 1434 1432 1430 1429 1427 1425 1422 1420 1418 1416 1413 1410 1408 1405 1403 1400 1398 1397 1395 1395 1394 1393